Regional Weather Roundup
Issued by NWS

Home | Current Version | Previous Version | Text Only | Print | Product List | Glossary On
Versions: 1 2 3 4 5 6 7 8 9 10 11 12 13 14 15 16 17 18 19 20 21 22 23 24 25 26 27 28 29 30 31 32 33 34 35 36 37 38 39 40 41 42 43 44 45 46 47 48 49 50
000
ASUS43 KTOP 251408
RWRKS

WEATHER ROUNDUP FOR KANSAS
NATIONAL WEATHER SERVICE GOODLAND KS
900 AM CDT MON MAY 25 2015

NOTE:  "FAIR" INDICATES FEW OR NO CLOUDS BELOW 12,000 FEET WITH NO
SIGNIFICANT WEATHER AND/OR OBSTRUCTIONS TO VISIBILITY.

KSZ001>006-013>018-027>032-041>047-251500-
NORTHWEST KANSAS

CITY           SKY/WX    TMP DP  RH WIND       PRES   REMARKS
GOODLAND       SUNNY     56  49  77 W9        29.85R
HAYS           CLOUDY    57  48  72 SE6       29.83S
HILL CITY      SUNNY     59  54  83 CALM      29.84R
RUSSELL        PTSUNNY   59  57  93 SE13      29.81S
$$

KSZ061>065-074>080-084>089-251500-
SOUTHWEST KANSAS

CITY           SKY/WX    TMP DP  RH WIND       PRES   REMARKS
DODGE CITY     FOG       60  58  92 S7        29.80S VSB 1/4
ELKHART          N/A     57  47  69 NW6         N/A
GARDEN CITY    CLOUDY    54  54 100 N6        29.81S FOG
GREAT BEND     CLOUDY    57  54  88 E5        29.82S
LIBERAL        SUNNY     57  52  82 N7        29.83S
PRATT          FOG       59  59 100 SE7       29.83S VSB 1/4
$$

KSZ066>073-081>083-090>101-251500-
SOUTHEAST KANSAS

CITY           SKY/WX    TMP DP  RH WIND       PRES   REMARKS
CHANUTE        PTSUNNY   65  64  97 E7        29.93F
COFFEYVILLE    CLOUDY    68  66  93 W8        29.93R
HUTCHINSON     CLOUDY    61  58  90 E13       29.83F
MEDICINE LODGE   N/A     67  65  93 SE9       29.82S
NEWTON         CLOUDY    61  55  82 SE12G17   29.87F
PARSONS        LGT RAIN  64  64 100 CALM      29.95R FOG
WICHITA INTL   PTSUNNY   63  60  90 SE16      29.85S
WICHITA JABRA  CLOUDY    61  58  90 SE12      29.86S
WICHITA MCCONL PTSUNNY   63  61  94 E13       29.86S
WINFIELD       CLOUDY    67  66  97 SE10      29.87F
$$

KSZ007>012-019>026-033>040-048>060-102>105-251500-
NORTHEAST KANSAS

CITY           SKY/WX    TMP DP  RH WIND       PRES   REMARKS
CONCORDIA      CLOUDY    60  56  86 S10       29.83R
EMPORIA        CLOUDY    61  58  90 SE12      29.89R
LAWRENCE       CLOUDY    64  60  87 SE13      29.88F
MANHATTAN      PTSUNNY   65  60  84 SE6       29.84R
OLATHE IND     PTSUNNY   62  61  96 E12       29.90F
OLATHE EXE     LGT RAIN  63  62  97 SE9       29.91F
SALINA         CLOUDY    62  58  86 S8        29.84R
TOPEKA BILLARD PTSUNNY   64  61  90 SE9       29.86R
TOPEKA FORBES  MOSUNNY   65  60  84 SE14      29.87R
$$


USA.gov is the U.S. government's official web portal to all federal, state and local government web resources and services.